FW4314 Weather Reports


time (UTC)temp
C
wind
direction
speed
KPH
gust
KPH
rain 1hr
cm
rain 24hr
cm
rain mn
cm
humidity
%
barometer
mb
20260510020554 13 101 4.8 12.9 0.00 0.10 0.10 83 1011.4
20260510015521 13 105 6.4 12.9 0.00 0.10 0.10 83 1011.4
20260510014529 13 102 12.9 16.1 0.00 0.10 0.10 83 1011.4
20260510013528 13 114 11.3 14.5 0.00 0.10 0.10 82 1012.4
20260510012604 13 112 8.0 16.1 0.00 0.10 0.10 81 1012.4
20260510011554 13 102 6.4 12.9 0.00 0.10 0.10 80 1012.4
20260510010532 13 109 8.0 12.9 0.00 0.10 0.10 80 1012.4
20260510005550 13 94 4.8 11.3 0.00 0.10 0.10 79 1012.4
20260510004520 14 108 4.8 9.7 0.10 0.10 0.10 79 1012.4
20260510003529 14 85 6.4 9.7 0.10 0.10 0.10 79 1012.4
20260510002527 14 102 3.2 9.7 0.10 0.10 0.10 79 1012.4
20260510001545 14 96 8.0 14.5 0.10 0.10 0.10 79 1012.4
20260510000523 14 102 9.7 17.7 0.10 0.10 0.10 79 1012.4
20260509235521 14 110 11.3 17.7 0.10 0.10 0.10 79 1013.2
20260509234523 14 119 16.1 22.5 0.00 0.00 0.00 78 1013.4
20260509233525 14 119 12.9 19.3 0.00 0.00 0.00 77 1013.4
20260509232529 15 124 20.9 33.8 0.00 0.00 0.00 77 1013.4
20260509231547 15 137 16.1 24.1 0.00 0.00 0.00 75 1013.4
20260509230525 15 131 17.7 29.0 0.00 0.00 0.00 73 1013.4
20260509225523 15 119 16.1 25.7 0.00 0.00 0.00 72 1013.4
20260509224523 15 113 17.7 27.4 0.00 0.00 0.00 69 1013.4
20260509223522 15 117 19.3 29.0 0.00 0.00 0.00 66 1012.4
20260509222531 16 127 19.3 35.4 0.00 0.00 0.00 63 1012.4
20260509221521 16 126 16.1 27.4 0.00 0.00 0.00 59 1012.4
20260509220520 16 121 14.5 22.5 0.00 0.00 0.00 56 1012.4
20260509215525 16 110 9.7 14.5 0.00 0.00 0.00 55 1012.4
20260509214523 16 104 9.7 16.1 0.00 0.00 0.00 54 1012.4
20260509213521 16 97 0.0 3.2 0.00 0.00 0.00 54 1012.4
20260509212522 16 0.0 0.0 0.00 0.00 0.00 54 1012.4
20260509211532 16 0.0 0.0 0.00 0.00 0.00 54 1012.4
20260509210526 16 107 0.0 3.2 0.00 0.00 0.00 54 1012.4
20260509205528 16 50 1.6 4.8 0.00 0.00 0.00 54 1012.4
20260509204520 16 0.0 0.0 0.00 0.00 0.00 54 1012.4
20260509203544 16 0.0 0.0 0.00 0.00 0.00 54 1012.4
20260509202541 16 0.0 0.0 0.00 0.00 0.00 53 1012.4
20260509201520 16 0.0 0.0 0.00 0.00 0.00 53 1012.4
20260509200549 16 0.0 0.0 0.00 0.00 0.00 52 1012.4
20260509195527 16 0.0 0.0 0.00 0.00 0.00 52 1011.6
20260509194524 16 80 0.0 6.4 0.00 0.00 0.00 52 1011.4
20260509193530 17 0.0 0.0 0.00 0.00 0.00 51 1011.4
20260509192544 17 75 0.0 6.4 0.00 0.00 0.00 51 1011.4
20260509191543 17 78 0.0 6.4 0.00 0.00 0.00 50 1011.4
20260509190520 17 80 0.0 4.8 0.00 0.00 0.00 49 1011.4
20260509185531 18 78 0.0 3.2 0.00 0.00 0.00 49 1012.1
20260509184525 18 78 0.0 6.4 0.00 0.00 0.00 48 1012.4
20260509183523 18 80 1.6 8.0 0.00 0.00 0.00 47 1012.4
20260509182526 18 90 3.2 11.3 0.00 0.00 0.00 47 1012.4
20260509181524 18 96 6.4 11.3 0.00 0.00 0.00 47 1012.4
20260509180522 18 97 8.0 14.5 0.00 0.00 0.00 46 1012.4
20260509175520 19 103 8.0 12.9 0.00 0.00 0.00 46 1011.6
20260509174547 19 99 8.0 14.5 0.00 0.00 0.00 46 1011.4
20260509173531 20 102 9.7 17.7 0.00 0.00 0.00 46 1011.4
20260509172520 20 108 9.7 14.5 0.00 0.00 0.00 46 1011.4
20260509171529 20 105 9.7 20.9 0.00 0.00 0.00 46 1011.4
20260509170524 20 85 9.7 17.7 0.00 0.00 0.00 47 1011.4
20260509165523 20 76 8.0 17.7 0.00 0.00 0.00 47 1011.4
20260509164520 20 86 6.4 12.9 0.00 0.00 0.00 47 1011.4
20260509163532 21 92 3.2 8.0 0.00 0.00 0.00 46 1011.4
20260509162522 21 75 8.0 14.5 0.00 0.00 0.00 44 1012.2
20260509161530 21 82 11.3 17.7 0.00 0.00 0.00 44 1012.4
20260509160547 21 77 6.4 11.3 0.00 0.00 0.00 44 1012.4
20260509155525 21 96 12.9 19.3 0.00 0.00 0.00 43 1012.4
20260509154528 21 100 9.7 16.1 0.00 0.00 0.00 42 1012.4
20260509153524 21 123 14.5 17.7 0.00 0.00 0.00 42 1012.4
20260509152522 22 111 9.7 20.9 0.00 0.00 0.00 42 1012.4
20260509151530 22 112 12.9 19.3 0.00 0.00 0.00 42 1012.4
20260509150528 22 100 17.7 24.1 0.00 0.00 0.00 41 1012.4
20260509145526 22 105 9.7 17.7 0.00 0.00 0.00 42 1012.4
20260509144524 23 102 16.1 27.4 0.00 0.00 0.00 41 1012.4
20260509143522 23 97 14.5 24.1 0.00 0.00 0.00 42 1012.4
20260509142520 23 105 12.9 17.7 0.00 0.00 0.00 42 1012.4
20260509141519 23 101 17.7 24.1 0.00 0.00 0.00 41 1012.4
20260509140521 23 96 14.5 22.5 0.00 0.00 0.00 41 1013.4
20260509135528 23 99 14.5 22.5 0.00 0.00 0.00 41 1013.4
20260509134526 23 102 16.1 20.9 0.00 0.00 0.00 41 1013.4
20260509133525 23 93 14.5 27.4 0.00 0.00 0.00 42 1013.4
20260509132523 23 101 14.5 27.4 0.00 0.00 0.00 42 1013.4
20260509131520 23 99 14.5 22.5 0.00 0.00 0.00 43 1013.4
20260509130526 23 105 12.9 19.3 0.00 0.00 0.00 44 1013.4
20260509125525 23 107 11.3 20.9 0.00 0.00 0.00 44 1013.4
20260509124533 23 112 9.7 16.1 0.00 0.00 0.00 44 1013.4
20260509123526 23 118 11.3 17.7 0.00 0.00 0.00 43 1013.4
20260509122524 23 106 9.7 16.1 0.00 0.00 0.00 44 1013.4
20260509121524 23 117 8.0 17.7 0.00 0.00 0.00 45 1013.4
20260509120520 23 137 19.3 30.6 0.00 0.00 0.00 44 1013.4
20260509115553 23 128 16.1 22.5 0.00 0.00 0.00 45 1014.2
20260509114532 23 124 20.9 30.6 0.00 0.00 0.00 45 1014.4
20260509113524 23 115 17.7 40.2 0.00 0.00 0.00 44 1014.4
20260509112521 23 104 12.9 20.9 0.00 0.00 0.00 45 1014.4
20260509111524 23 128 16.1 25.7 0.00 0.00 0.00 45 1014.4
20260509110522 23 130 16.1 25.7 0.00 0.00 0.00 46 1014.4
20260509105521 23 135 14.5 27.4 0.00 0.00 0.00 47 1014.4
20260509104524 23 129 9.7 20.9 0.00 0.00 0.00 49 1014.4
20260509103523 23 146 14.5 22.5 0.00 0.00 0.00 48 1014.4
20260509102529 23 127 16.1 30.6 0.00 0.00 0.00 48 1013.7
20260509101537 23 126 11.3 14.5 0.00 0.00 0.00 50 1013.4
20260509100526 22 108 12.9 24.1 0.00 0.00 0.00 50 1013.4
20260509095523 22 136 12.9 24.1 0.00 0.00 0.00 52 1013.4
20260509094541 22 102 9.7 22.5 0.00 0.00 0.00 53 1013.4
20260509093524 22 95 11.3 19.3 0.00 0.00 0.00 54 1013.4
20260509092531 21 111 12.9 24.1 0.00 0.00 0.00 54 1013.4
20260509091526 21 100 11.3 22.5 0.00 0.00 0.00 56 1013.4
20260509090528 21 102 12.9 22.5 0.00 0.00 0.00 56 1013.4
20260509085525 21 103 11.3 20.9 0.00 0.00 0.00 56 1013.4
20260509084523 20 106 9.7 14.5 0.00 0.00 0.00 59 1013.4
20260509083545 20 101 9.7 20.9 0.00 0.00 0.00 60 1014.4
20260509082539 20 95 9.7 17.7 0.00 0.00 0.00 62 1014.4
20260509081551 20 86 6.4 14.5 0.00 0.00 0.00 65 1014.4
20260509080529 19 97 3.2 9.7 0.00 0.00 0.00 67 1014.4
20260509075527 19 80 3.2 8.0 0.00 0.00 0.00 69 1014.4
20260509074530 18 97 4.8 14.5 0.00 0.00 0.00 70 1014.4
20260509073526 18 0.0 0.0 0.00 0.00 0.00 71 1014.4
20260509072522 17 0.0 0.0 0.00 0.00 0.00 73 1014.4
20260509071519 17 57 0.0 4.8 0.00 0.00 0.00 73 1014.4
20260509070531 17 40 1.6 4.8 0.00 0.00 0.00 75 1014.4
20260509065529 16 62 1.6 8.0 0.00 0.00 0.00 76 1014.4
20260509064547 16 56 1.6 6.4 0.00 0.00 0.00 77 1014.4
20260509063526 15 66 0.0 6.4 0.00 0.00 0.00 78 1014.4
20260509062519 15 84 1.6 6.4 0.00 0.00 0.00 78 1014.4
20260509061521 14 76 3.2 9.7 0.00 0.00 0.00 79 1014.4
20260509060519 13 76 1.6 8.0 0.00 0.00 0.00 79 1014.4
20260509055533 13 75 3.2 9.7 0.00 0.00 0.00 79 1014.4
20260509054543 13 66 0.0 6.4 0.00 0.00 0.00 79 1014.4
20260509053521 13 0.0 0.0 0.00 0.00 0.00 79 1014.4
20260509052526 12 0.0 0.0 0.00 0.00 0.00 80 1014.4
20260509051538 12 0.0 0.0 0.00 0.00 0.00 80 1014.4
20260509050521 12 90 0.0 0.0 0.00 0.00 0.00 80 1014.4
20260509045600 12 0.0 0.0 0.00 0.00 0.00 80 1014.4
20260509044523 12 0.0 0.0 0.00 0.00 0.00 80 1014.4
20260509043530 12 90 0.0 6.4 0.00 0.00 0.00 79 1014.4
20260509042530 12 0.0 0.0 0.00 0.00 0.00 79 1014.4
20260509041526 12 0.0 0.0 0.00 0.00 0.00 79 1014.4
20260509040524 12 68 0.0 4.8 0.00 0.00 0.00 79 1014.4
20260509035522 12 0.0 0.0 0.00 0.00 0.00 79 1014.4
20260509034520 12 0.0 0.0 0.00 0.00 0.00 79 1014.4
20260509033521 12 0.0 0.0 0.00 0.00 0.00 78 1014.4
20260509032519 12 113 0.0 3.2 0.00 0.00 0.00 78 1014.4
20260509031544 12 100 0.0 3.2 0.00 0.00 0.00 78 1014.4
20260509030528 12 90 0.0 0.0 0.00 0.00 0.00 77 1014.4
20260509025546 12 102 1.6 4.8 0.00 0.00 0.00 77 1014.4
20260509024522 12 0.0 0.0 0.00 0.00 0.00 77 1014.4
20260509023520 12 90 0.0 0.0 0.00 0.00 0.00 76 1014.4
20260509022524 12 90 0.0 0.0 0.00 0.00 0.00 76 1014.4
20260509021529 12 0.0 0.0 0.00 0.00 0.00 75 1014.4